Location: Montr�al
(45.5000°N, 73.5830°W)
Time: 09:06:58
(UTC-05:00)

ISS - Visible Passes

Search period start: 12 February 2016 00:00
Search period end: 22 February 2016 00:00
Orbit: 398 x 408 km, 51.6° (Epoch: 11 February)

Date Brightness Start Highest point End Pass type
(mag) Time Alt. Az. Time Alt. Az. Time Alt. Az.
12 Feb -2.1 18:32:49 10° NW 18:35:42 28° N 18:36:44 23° NE visible
12 Feb 0.2 20:09:14 10° WNW 20:09:22 11° WNW 20:09:22 11° WNW visible
13 Feb -2.2 19:16:31 10° NW 19:18:51 38° NNW 19:18:51 38° NNW visible
14 Feb -2.5 18:23:45 10° NW 18:26:49 37° NNE 18:28:22 22° ENE visible
14 Feb -0.3 20:00:11 10° WNW 20:01:00 16° WNW 20:01:00 16° WNW visible
15 Feb -3.5 19:07:20 10° WNW 19:10:33 87° WSW 19:10:33 87° WSW visible
16 Feb -3.2 18:14:30 10° WNW 18:17:43 58° NNE 18:20:10 16° ESE visible
16 Feb -0.7 19:51:16 10° W 19:52:48 19° WSW 19:52:48 19° WSW visible
17 Feb -2.3 18:58:08 10° WNW 19:01:14 42° SW 19:02:31 27° SSE visible
18 Feb -3.2 18:05:09 10° WNW 18:08:23 76° SSW 18:11:38 10° SE visible
18 Feb -0.3 19:43:12 10° WSW 19:44:19 11° SW 19:45:01 11° SW visible
19 Feb -0.9 18:49:08 10° W 18:51:37 20° SW 18:54:06 10° S visible
20 Feb -1.7 17:55:48 10° WNW 17:58:49 36° SW 18:01:49 10° SSE visible
